When you browse on this site, cookies collect data to enhance your experience and personalize the content and advertising you see.
Visit our Privacy Policy to learn more. By continuing to use the site, you agree to this use of cookies and data.
  • In Hungary
  • List of Countries
  • For 7 days
  • Water Temperature
  • Satellite Maps
  • Weather Map
  • News
  • Weather Widgets
  • user-avatar
    Login

    Hourly Weather Kunki

    Today, 18 January, Friday

    Time Temperature Precipitation Wind Pressure Humidity
    00:00 +1°C° 0 mm 5 mps 741 mmHg 88%
    01:00 +1°C° 0 mm 6 mps 741 mmHg 86%
    02:00 -1°C° 0 mm 6 mps 741 mmHg 85%
    03:00 -1°C° 0 mm 7 mps 741 mmHg 83%
    04:00 -1°C° 0 mm 7 mps 741 mmHg 82%
    05:00 -1°C° 0.1 mm 7 mps 742 mmHg 81%
    06:00 -2°C° 0.1 mm 7 mps 742 mmHg 81%
    07:00 -2°C° 0.1 mm 7 mps 743 mmHg 81%
    08:00 -2°C° 0.2 mm 7 mps 744 mmHg 81%
    09:00 -2°C° 0.2 mm 6 mps 745 mmHg 82%
    10:00 -2°C° 0.2 mm 6 mps 746 mmHg 82%
    11:00 -2°C° 0.1 mm 6 mps 747 mmHg 77%
    12:00 -2°C° 0.1 mm 6 mps 747 mmHg 71%
    13:00 -2°C° 0.1 mm 6 mps 748 mmHg 66%
    14:00 -1°C° 0 mm 5 mps 749 mmHg 67%
    15:00 -2°C° 0 mm 4 mps 750 mmHg 69%
    16:00 -3°C° 0 mm 4 mps 751 mmHg 71%
    17:00 -3°C° 0 mm 4 mps 751 mmHg 73%
    18:00 -3°C° 0 mm 4 mps 752 mmHg 75%
    19:00 -3°C° 0 mm 4 mps 752 mmHg 77%
    20:00 -3°C° 0 mm 4 mps 753 mmHg 79%
    21:00 -4°C° 0 mm 4 mps 753 mmHg 81%
    22:00 -4°C° 0 mm 4 mps 754 mmHg 82%
    23:00 -4°C° 0 mm 4 mps 754 mmHg 83%

    Tomorrow, 19 January, Saturday

    Time Temperature Precipitation Wind Pressure Humidity
    00:00 -4°C° 0 mm 4 mps 754 mmHg 83%
    01:00 -4°C° 0 mm 3 mps 754 mmHg 84%
    02:00 -4°C° 0 mm 3 mps 754 mmHg 85%
    03:00 -4°C° 0 mm 3 mps 754 mmHg 86%
    04:00 -4°C° 0 mm 3 mps 755 mmHg 87%
    05:00 -4°C° 0 mm 3 mps 755 mmHg 88%
    06:00 -4°C° 0 mm 3 mps 755 mmHg 88%
    07:00 -4°C° 0 mm 3 mps 755 mmHg 88%
    08:00 -4°C° 0 mm 3 mps 755 mmHg 86%
    09:00 -2°C° 0 mm 3 mps 756 mmHg 83%
    10:00 -2°C° 0 mm 3 mps 756 mmHg 80%
    11:00 -1°C° 0 mm 3 mps 756 mmHg 76%
    12:00 -1°C° 0 mm 3 mps 756 mmHg 72%
    13:00 0°C° 0 mm 3 mps 755 mmHg 69%
    14:00 -1°C° 0 mm 3 mps 755 mmHg 72%
    15:00 -2°C° 0 mm 2 mps 755 mmHg 75%
    16:00 -2°C° 0 mm 2 mps 755 mmHg 78%
    17:00 -3°C° 0 mm 2 mps 755 mmHg 79%
    18:00 -3°C° 0 mm 2 mps 755 mmHg 81%
    19:00 -3°C° 0 mm 2 mps 755 mmHg 82%
    20:00 -1°C° 0 mm 1 mps 755 mmHg 82%
    21:00 -1°C° 0 mm 1 mps 755 mmHg 82%
    22:00 -1°C° 0 mm 1 mps 755 mmHg 82%
    23:00 -1°C° 0 mm 1 mps 754 mmHg 82%

    Day after tomorrow, 20 January, Sunday

    Time Temperature Precipitation Wind Pressure Humidity
    00:00 -2°C° 0 mm 1 mps 754 mmHg 82%
    01:00 -2°C° 0 mm 1 mps 754 mmHg 83%
    02:00 -2°C° 0 mm 1 mps 754 mmHg 83%
    03:00 -2°C° 0 mm 1 mps 753 mmHg 83%
    04:00 -2°C° 0 mm 1 mps 753 mmHg 83%
    05:00 -3°C° 0 mm 0 mps 753 mmHg 82%
    06:00 -3°C° 0 mm 0 mps 753 mmHg 82%
    07:00 -3°C° 0 mm 0 mps 753 mmHg 82%
    08:00 -3°C° 0 mm 0 mps 753 mmHg 79%
    09:00 -2°C° 0 mm 0 mps 753 mmHg 75%
    10:00 -2°C° 0 mm 0 mps 753 mmHg 72%
    11:00 0°C° 0 mm 1 mps 753 mmHg 69%
    12:00 0°C° 0 mm 1 mps 753 mmHg 65%
    13:00 +1°C° 0 mm 1 mps 753 mmHg 62%
    14:00 0°C° 0 mm 1 mps 753 mmHg 65%
    15:00 0°C° 0 mm 1 mps 753 mmHg 68%
    16:00 -3°C° 0 mm 2 mps 753 mmHg 70%
    17:00 -3°C° 0 mm 2 mps 753 mmHg 71%
    18:00 -3°C° 0 mm 2 mps 753 mmHg 72%
    19:00 -4°C° 0 mm 2 mps 753 mmHg 73%
    20:00 -4°C° 0 mm 2 mps 754 mmHg 76%
    21:00 -5°C° 0 mm 3 mps 754 mmHg 79%
    22:00 -5°C° 0 mm 3 mps 754 mmHg 83%
    23:00 -5°C° 0 mm 3 mps 755 mmHg 85%

    21 January, Monday

    Time Temperature Precipitation Wind Pressure Humidity
    00:00 -4°C° 0 mm 3 mps 755 mmHg 88%
    01:00 -4°C° 0 mm 3 mps 755 mmHg 91%
    02:00 -5°C° 0 mm 3 mps 756 mmHg 93%
    03:00 -4°C° 0 mm 2 mps 756 mmHg 94%
    04:00 -4°C° 0 mm 2 mps 756 mmHg 95%
    05:00 -2°C° 0 mm 1 mps 756 mmHg 95%
    06:00 -2°C° 0 mm 1 mps 757 mmHg 94%
    07:00 -2°C° 0 mm 1 mps 757 mmHg 94%
    08:00 -2°C° 0 mm 1 mps 758 mmHg 90%
    09:00 -1°C° 0 mm 1 mps 758 mmHg 87%
    10:00 -1°C° 0 mm 1 mps 758 mmHg 83%
    11:00 0°C° 0 mm 1 mps 758 mmHg 81%
    12:00 0°C° 0 mm 1 mps 758 mmHg 78%
    13:00 -1°C° 0 mm 2 mps 758 mmHg 76%
    14:00 -2°C° 0 mm 2 mps 758 mmHg 81%
    15:00 -2°C° 0 mm 2 mps 758 mmHg 85%
    16:00 -3°C° 0 mm 2 mps 758 mmHg 90%
    17:00 -3°C° 0 mm 2 mps 757 mmHg 90%
    18:00 -3°C° 0 mm 2 mps 757 mmHg 91%
    19:00 -3°C° 0 mm 2 mps 757 mmHg 91%
    20:00 -3°C° 0 mm 2 mps 757 mmHg 89%
    21:00 -4°C° 0 mm 3 mps 757 mmHg 88%
    22:00 -4°C° 0 mm 3 mps 757 mmHg 86%
    23:00 -4°C° 0 mm 3 mps 756 mmHg 85%

    22 January, Tuesday

    Time Temperature Precipitation Wind Pressure Humidity
    00:00 -5°C° 0 mm 3 mps 756 mmHg 83%
    01:00 -5°C° 0 mm 3 mps 755 mmHg 82%
    02:00 -5°C° 0 mm 3 mps 755 mmHg 82%
    03:00 -5°C° 0 mm 3 mps 754 mmHg 82%
    04:00 -5°C° 0 mm 3 mps 753 mmHg 81%
    05:00 -5°C° 0 mm 3 mps 753 mmHg 83%
    06:00 -5°C° 0 mm 3 mps 752 mmHg 84%
    07:00 -5°C° 0 mm 3 mps 752 mmHg 85%
    08:00 -5°C° 0 mm 3 mps 752 mmHg 81%
    09:00 -4°C° 0 mm 3 mps 751 mmHg 76%
    10:00 -4°C° 0 mm 3 mps 751 mmHg 72%
    11:00 -2°C° 0 mm 3 mps 751 mmHg 68%
    12:00 -1°C° 0 mm 3 mps 750 mmHg 64%
    13:00 -2°C° 0 mm 4 mps 749 mmHg 59%
    14:00 -1°C° 0 mm 3 mps 749 mmHg 63%
    15:00 -2°C° 0 mm 3 mps 748 mmHg 66%
    16:00 -4°C° 0 mm 3 mps 747 mmHg 69%
    17:00 -4°C° 0 mm 3 mps 747 mmHg 71%
    18:00 -4°C° 0 mm 4 mps 746 mmHg 72%
    19:00 -4°C° 0 mm 4 mps 746 mmHg 74%
    20:00 -5°C° 0 mm 4 mps 746 mmHg 73%
    21:00 -5°C° 0 mm 4 mps 745 mmHg 72%
    22:00 -5°C° 0 mm 4 mps 745 mmHg 71%
    23:00 -5°C° 0 mm 4 mps 744 mmHg 72%

    23 January, Wednesday

    Time Temperature Precipitation Wind Pressure Humidity
    00:00 -5°C° 0 mm 4 mps 744 mmHg 73%
    01:00 -5°C° 0 mm 4 mps 743 mmHg 74%
    02:00 -6°C° 0 mm 5 mps 743 mmHg 74%
    03:00 -6°C° 0 mm 5 mps 742 mmHg 74%
    04:00 -6°C° 0 mm 5 mps 742 mmHg 74%
    05:00 -6°C° 0.2 mm 5 mps 741 mmHg 79%
    06:00 -6°C° 0.2 mm 5 mps 741 mmHg 83%
    07:00 -8°C° 0.2 mm 6 mps 741 mmHg 87%
    08:00 -6°C° 0.2 mm 6 mps 741 mmHg 86%
    09:00 -6°C° 0.2 mm 6 mps 741 mmHg 85%
    10:00 -6°C° 0.2 mm 6 mps 740 mmHg 84%
    11:00 -6°C° 0.3 mm 6 mps 740 mmHg 85%
    12:00 -5°C° 0.3 mm 6 mps 740 mmHg 86%
    13:00 -5°C° 0.3 mm 6 mps 740 mmHg 88%
    14:00 -5°C° 0.2 mm 6 mps 739 mmHg 88%
    15:00 -5°C° 0.2 mm 6 mps 739 mmHg 88%
    16:00 -4°C° 0.2 mm 6 mps 739 mmHg 88%
    17:00 -4°C° 0 mm 6 mps 739 mmHg 88%
    18:00 -4°C° 0 mm 5 mps 739 mmHg 88%
    19:00 -4°C° 0 mm 5 mps 739 mmHg 89%
    20:00 -4°C° 0 mm 5 mps 739 mmHg 89%
    21:00 -4°C° 0 mm 5 mps 739 mmHg 89%
    22:00 -2°C° 0 mm 5 mps 740 mmHg 90%
    23:00 -4°C° 0 mm 5 mps 740 mmHg 91%
    Show more